EZY87KZ EGPH-EGKK

Flight info

Callsign EZY87KZ
Flight time 1h 20m
Altitude 39000
Route GOSAM P600 FENIK L612 NAVSO DCT ADZOP DCT EGTOC DCT KEPAD L151 DISIT
Aircraft A320/M-SDE3FGHIRWY/LB1

Departure

Time 2026-05-07 18:07
Airport Edinburgh Airport (EGPH)

Arrival

Time 2026-05-07 19:27
Airport London Gatwick Airport (EGKK)
Time Latitude Longitude Altitude Speed Heading
2026-05-07 17:39 55.94841 -3.35862 113 ft 0 kts 208°
2026-05-07 17:40 55.94795 -3.35686 114 ft 0 kts 208°
2026-05-07 17:57 55.94802 -3.35679 116 ft 3 kts 210°
2026-05-07 17:57 55.94819 -3.35661 116 ft 3 kts 217°
2026-05-07 17:58 55.94834 -3.35638 115 ft 3 kts 228°
2026-05-07 17:58 55.94845 -3.35610 116 ft 3 kts 253°
2026-05-07 17:58 55.94847 -3.35583 113 ft 2 kts 295°
2026-05-07 17:58 55.94846 -3.35578 116 ft 0 kts 298°
2026-05-07 18:01 55.94856 -3.35611 113 ft 6 kts 298°
2026-05-07 18:01 55.94889 -3.35717 113 ft 10 kts 298°
2026-05-07 18:02 55.94974 -3.35855 114 ft 7 kts
2026-05-07 18:02 55.95017 -3.35825 114 ft 6 kts 27°
2026-05-07 18:02 55.95053 -3.35792 116 ft 5 kts 26°
2026-05-07 18:03 55.95086 -3.35793 116 ft 5 kts 339°
2026-05-07 18:03 55.95107 -3.35827 116 ft 4 kts 308°
2026-05-07 18:03 55.95120 -3.35869 116 ft 5 kts 298°
2026-05-07 18:03 55.95159 -3.35938 116 ft 11 kts 326°
2026-05-07 18:04 55.95218 -3.35980 116 ft 9 kts
2026-05-07 18:04 55.95257 -3.35916 116 ft 7 kts 58°
2026-05-07 18:04 55.95281 -3.35846 115 ft 6 kts 58°
2026-05-07 18:04 55.95304 -3.35781 116 ft 6 kts 59°
2026-05-07 18:05 55.95337 -3.35682 114 ft 11 kts 59°
2026-05-07 18:05 55.95372 -3.35577 113 ft 9 kts 59°
2026-05-07 18:05 55.95403 -3.35484 114 ft 8 kts 59°
2026-05-07 18:05 55.95436 -3.35412 116 ft 7 kts 32°
2026-05-07 18:06 55.95479 -3.35418 116 ft 6 kts 332°
2026-05-07 18:06 55.95515 -3.35458 115 ft 6 kts 328°
2026-05-07 18:06 55.95558 -3.35503 113 ft 8 kts 332°
2026-05-07 18:06 55.95568 -3.35571 113 ft 6 kts 249°
2026-05-07 18:07 55.95542 -3.35652 113 ft 17 kts 239°
2026-05-07 18:07 55.95340 -3.36249 110 ft 93 kts 239°
2026-05-07 18:07 55.94899 -3.37555 118 ft 148 kts 238°
2026-05-07 18:07 55.94361 -3.39128 752 ft 147 kts 237°
2026-05-07 18:08 55.93819 -3.40686 1415 ft 151 kts 237°
2026-05-07 18:08 55.93237 -3.42369 1805 ft 172 kts 237°
2026-05-07 18:08 55.92564 -3.44310 2125 ft 195 kts 237°
2026-05-07 18:08 55.91802 -3.46501 2471 ft 220 kts 237°
2026-05-07 18:09 55.90952 -3.48951 2989 ft 243 kts 238°
2026-05-07 18:09 55.90336 -3.51829 3764 ft 256 kts 258°
2026-05-07 18:09 55.89984 -3.54975 4726 ft 259 kts 251°
2026-05-07 18:09 55.89065 -3.57705 5647 ft 261 kts 223°
2026-05-07 18:10 55.87515 -3.59386 6602 ft 263 kts 202°
2026-05-07 18:10 55.85808 -3.60496 7500 ft 266 kts 200°
2026-05-07 18:10 55.84038 -3.61575 8397 ft 271 kts 199°
2026-05-07 18:10 55.82235 -3.62669 9267 ft 275 kts 199°
2026-05-07 18:11 55.80402 -3.63780 10114 ft 280 kts 199°
2026-05-07 18:11 55.79144 -3.64542 10365 ft 295 kts 199°
2026-05-07 18:11 55.76415 -3.66002 10953 ft 319 kts 191°
2026-05-07 18:11 55.74196 -3.66691 11717 ft 324 kts 190°
2026-05-07 18:12 55.71957 -3.67338 12510 ft 328 kts 190°
2026-05-07 18:12 55.69692 -3.67971 13268 ft 331 kts 190°
2026-05-07 18:12 55.67401 -3.68608 14019 ft 335 kts 190°
2026-05-07 18:12 55.65086 -3.69251 14737 ft 338 kts 190°
2026-05-07 18:13 55.62777 -3.69897 15429 ft 341 kts 190°
2026-05-07 18:13 55.60416 -3.70568 16110 ft 344 kts 190°
2026-05-07 18:13 55.58038 -3.71249 16771 ft 348 kts 190°
2026-05-07 18:13 55.55636 -3.71939 17417 ft 351 kts 190°
2026-05-07 18:14 55.53208 -3.72637 18055 ft 354 kts 190°
2026-05-07 18:14 55.50795 -3.73326 18674 ft 357 kts 190°
2026-05-07 18:14 55.48326 -3.74028 19276 ft 361 kts 190°
2026-05-07 18:14 55.45833 -3.74732 19879 ft 364 kts 190°
2026-05-07 18:15 55.43321 -3.75437 20447 ft 366 kts 189°
2026-05-07 18:15 55.40791 -3.76146 20995 ft 369 kts 189°
2026-05-07 18:15 55.38237 -3.76866 21522 ft 373 kts 189°
2026-05-07 18:15 55.35666 -3.77591 22031 ft 376 kts 189°
2026-05-07 18:16 55.33072 -3.78322 22528 ft 379 kts 189°
2026-05-07 18:16 55.30455 -3.79062 23029 ft 382 kts 189°
2026-05-07 18:16 55.27851 -3.79793 23500 ft 385 kts 189°
2026-05-07 18:16 55.25188 -3.80518 23959 ft 388 kts 187°
2026-05-07 18:17 55.22479 -3.80666 24401 ft 392 kts 177°
2026-05-07 18:17 55.19771 -3.79937 24828 ft 396 kts 167°
2026-05-07 18:17 55.17124 -3.78512 25252 ft 399 kts 163°
2026-05-07 18:17 55.14474 -3.77041 25675 ft 401 kts 163°
2026-05-07 18:18 55.11805 -3.75575 26087 ft 403 kts 163°
2026-05-07 18:18 55.09118 -3.74111 26497 ft 406 kts 164°
2026-05-07 18:18 55.06408 -3.72639 26897 ft 408 kts 163°
2026-05-07 18:18 55.03693 -3.71164 27290 ft 410 kts 163°
2026-05-07 18:19 55.00959 -3.69680 27671 ft 413 kts 163°
2026-05-07 18:19 54.98241 -3.68203 28042 ft 414 kts 163°
2026-05-07 18:19 54.95479 -3.66702 28403 ft 417 kts 163°
2026-05-07 18:19 54.92702 -3.65194 28777 ft 419 kts 163°
2026-05-07 18:20 54.89906 -3.63678 29139 ft 421 kts 163°
2026-05-07 18:20 54.87101 -3.62157 29492 ft 423 kts 163°
2026-05-07 18:20 54.84285 -3.60637 29829 ft 424 kts 163°
2026-05-07 18:20 54.81485 -3.59130 30144 ft 426 kts 163°
2026-05-07 18:21 54.78642 -3.57604 30445 ft 428 kts 163°
2026-05-07 18:21 54.75786 -3.56068 30741 ft 430 kts 163°
2026-05-07 18:21 54.72918 -3.54527 31030 ft 432 kts 163°
2026-05-07 18:21 54.70044 -3.52985 31318 ft 433 kts 163°
2026-05-07 18:22 54.67158 -3.51435 31608 ft 435 kts 163°
2026-05-07 18:22 54.65248 -3.50408 31867 ft 434 kts 163°
2026-05-07 18:22 54.61428 -3.48357 32377 ft 432 kts 163°
2026-05-07 18:22 54.58547 -3.46819 32748 ft 431 kts 163°
2026-05-07 18:23 54.55673 -3.45290 33114 ft 430 kts 163°
2026-05-07 18:23 54.52807 -3.43770 33487 ft 429 kts 163°
2026-05-07 18:23 54.49987 -3.42275 33851 ft 428 kts 163°
2026-05-07 18:23 54.47142 -3.40765 34221 ft 427 kts 163°
2026-05-07 18:24 54.44280 -3.39249 34557 ft 427 kts 163°
2026-05-07 18:24 54.41439 -3.37748 34860 ft 427 kts 163°
2026-05-07 18:24 54.38595 -3.36249 35134 ft 428 kts 163°
2026-05-07 18:24 54.35778 -3.34766 35389 ft 428 kts 163°
2026-05-07 18:25 54.32916 -3.33263 35642 ft 429 kts 163°
2026-05-07 18:25 54.30047 -3.31759 35888 ft 430 kts 163°
2026-05-07 18:25 54.27217 -3.30278 36122 ft 430 kts 163°
2026-05-07 18:25 54.24345 -3.28775 36351 ft 431 kts 163°
2026-05-07 18:26 54.21465 -3.27268 36558 ft 432 kts 163°
2026-05-07 18:26 54.18574 -3.25870 36822 ft 430 kts 169°
2026-05-07 18:26 54.15627 -3.25155 37159 ft 426 kts 175°
2026-05-07 18:26 54.12753 -3.24243 37403 ft 426 kts 161°
2026-05-07 18:27 54.10115 -3.21946 37581 ft 428 kts 147°
2026-05-07 18:27 54.07662 -3.18991 37734 ft 430 kts 145°
2026-05-07 18:27 54.05271 -3.16022 37900 ft 431 kts 145°
2026-05-07 18:27 54.03629 -3.13979 38015 ft 431 kts 145°
2026-05-07 18:28 54.00415 -3.09975 38233 ft 432 kts 145°
2026-05-07 18:28 53.97980 -3.06945 38389 ft 433 kts 145°
2026-05-07 18:28 53.95542 -3.03917 38527 ft 434 kts 145°
2026-05-07 18:28 53.93130 -3.00926 38665 ft 435 kts 145°
2026-05-07 18:29 53.90680 -2.97889 38817 ft 436 kts 145°
2026-05-07 18:29 53.88215 -2.94891 38960 ft 436 kts 149°
2026-05-07 18:29 53.85483 -2.92719 38994 ft 434 kts 165°
2026-05-07 18:30 53.79620 -2.90093 39002 ft 435 kts 166°
2026-05-07 18:30 53.73741 -2.87544 38993 ft 436 kts 166°
2026-05-07 18:31 53.67889 -2.85011 38994 ft 436 kts 166°
2026-05-07 18:31 53.61984 -2.82442 39006 ft 436 kts 166°
2026-05-07 18:32 53.56140 -2.79897 39015 ft 436 kts 166°
2026-05-07 18:32 53.50244 -2.77335 39022 ft 437 kts 166°
2026-05-07 18:33 53.44352 -2.74793 39028 ft 437 kts 166°
2026-05-07 18:33 53.38485 -2.72267 39033 ft 437 kts 166°
2026-05-07 18:34 53.32608 -2.69752 39035 ft 437 kts 166°
2026-05-07 18:34 53.26714 -2.67236 39033 ft 437 kts 166°
2026-05-07 18:35 53.20816 -2.64719 39036 ft 437 kts 166°
2026-05-07 18:35 53.14940 -2.62221 39037 ft 437 kts 167°
2026-05-07 18:36 53.09035 -2.59713 39037 ft 437 kts 167°
2026-05-07 18:36 53.03125 -2.57206 39038 ft 437 kts 167°
2026-05-07 18:36 53.00171 -2.55953 38917 ft 438 kts 167°
2026-05-07 18:37 52.97259 -2.54725 38674 ft 437 kts 167°
2026-05-07 18:37 52.94314 -2.53492 38355 ft 435 kts 167°
2026-05-07 18:37 52.91383 -2.52264 37783 ft 433 kts 167°
2026-05-07 18:37 52.88452 -2.51032 37119 ft 434 kts 166°
2026-05-07 18:38 52.85517 -2.49796 36384 ft 436 kts 166°
2026-05-07 18:38 52.83568 -2.48959 35865 ft 438 kts 164°
2026-05-07 18:38 52.80714 -2.47169 35234 ft 438 kts 155°
2026-05-07 18:38 52.78081 -2.44685 34714 ft 435 kts 147°
2026-05-07 18:39 52.75573 -2.41915 34149 ft 432 kts 147°
2026-05-07 18:39 52.73080 -2.39161 33599 ft 428 kts 147°
2026-05-07 18:39 52.70611 -2.36438 33058 ft 425 kts 147°
2026-05-07 18:39 52.68184 -2.33766 32516 ft 422 kts 147°
2026-05-07 18:40 52.65740 -2.31080 31960 ft 419 kts 147°
2026-05-07 18:40 52.63321 -2.28430 31447 ft 416 kts 147°
2026-05-07 18:40 52.60919 -2.25798 30911 ft 412 kts 147°
2026-05-07 18:40 52.58560 -2.23216 30398 ft 409 kts 148°
2026-05-07 18:41 52.56198 -2.20636 29882 ft 406 kts 148°
2026-05-07 18:41 52.53842 -2.18070 29381 ft 403 kts 148°
2026-05-07 18:41 52.51532 -2.15553 28887 ft 400 kts 148°
2026-05-07 18:41 52.49219 -2.13027 28412 ft 396 kts 148°
2026-05-07 18:42 52.46932 -2.10540 27944 ft 392 kts 148°
2026-05-07 18:42 52.44662 -2.08077 27483 ft 388 kts 148°
2026-05-07 18:42 52.42420 -2.05649 27035 ft 383 kts 148°
2026-05-07 18:42 52.40224 -2.03274 26596 ft 379 kts 148°
2026-05-07 18:43 52.38028 -2.00898 26162 ft 375 kts 148°
2026-05-07 18:43 52.35860 -1.98554 25718 ft 372 kts 148°
2026-05-07 18:43 52.33709 -1.96230 25261 ft 369 kts 148°
2026-05-07 18:43 52.31594 -1.93947 24818 ft 365 kts 148°
2026-05-07 18:44 52.29474 -1.91667 24348 ft 363 kts 148°
2026-05-07 18:44 52.27374 -1.89412 23884 ft 361 kts 148°
2026-05-07 18:44 52.25275 -1.87159 23408 ft 359 kts 148°
2026-05-07 18:44 52.23185 -1.84915 22930 ft 357 kts 148°
2026-05-07 18:45 52.21133 -1.82715 22457 ft 356 kts 148°
2026-05-07 18:45 52.19064 -1.80499 21986 ft 355 kts 148°
2026-05-07 18:45 52.17000 -1.78289 21521 ft 353 kts 148°
2026-05-07 18:45 52.14947 -1.76092 21055 ft 352 kts 148°
2026-05-07 18:46 52.12901 -1.73908 20604 ft 351 kts 148°
2026-05-07 18:46 52.10859 -1.71733 20141 ft 349 kts 148°
2026-05-07 18:46 52.08856 -1.69605 19780 ft 346 kts 148°
2026-05-07 18:46 52.06853 -1.67474 19499 ft 342 kts 148°
2026-05-07 18:47 52.04863 -1.65355 19207 ft 340 kts 148°
2026-05-07 18:47 52.02888 -1.63259 18911 ft 339 kts 148°
2026-05-07 18:47 52.00918 -1.61171 18614 ft 337 kts 148°
2026-05-07 18:47 51.98955 -1.59091 18314 ft 335 kts 148°
2026-05-07 18:48 51.97007 -1.57029 18010 ft 334 kts 148°
2026-05-07 18:48 51.95064 -1.54979 17724 ft 332 kts 148°
2026-05-07 18:48 51.93154 -1.52966 17438 ft 331 kts 148°
2026-05-07 18:48 51.91223 -1.50931 17144 ft 329 kts 148°
2026-05-07 18:49 51.89310 -1.48913 16853 ft 327 kts 148°
2026-05-07 18:49 51.87405 -1.46905 16563 ft 326 kts 148°
2026-05-07 18:49 51.85506 -1.44907 16279 ft 324 kts 148°
2026-05-07 18:49 51.83615 -1.42917 15996 ft 323 kts 148°
2026-05-07 18:50 51.81736 -1.40944 15713 ft 321 kts 148°
2026-05-07 18:50 51.79885 -1.39008 15433 ft 320 kts 148°
2026-05-07 18:50 51.78014 -1.37058 15153 ft 318 kts 148°
2026-05-07 18:50 51.76153 -1.35118 15005 ft 317 kts 148°
2026-05-07 18:51 51.74293 -1.33175 15022 ft 318 kts 148°
2026-05-07 18:51 51.72440 -1.31239 15025 ft 318 kts 148°
2026-05-07 18:51 51.70579 -1.29298 15027 ft 318 kts 148°
2026-05-07 18:51 51.68725 -1.27364 15027 ft 318 kts 148°
2026-05-07 18:52 51.66881 -1.25445 15036 ft 318 kts 148°
2026-05-07 18:52 51.65024 -1.23517 15026 ft 317 kts 148°
2026-05-07 18:52 51.63167 -1.21587 15027 ft 318 kts 148°
2026-05-07 18:52 51.61307 -1.19655 15027 ft 317 kts 148°
2026-05-07 18:53 51.59447 -1.17728 15027 ft 318 kts 148°
2026-05-07 18:53 51.57589 -1.15799 15025 ft 318 kts 148°
2026-05-07 18:53 51.55749 -1.13893 15024 ft 318 kts 148°
2026-05-07 18:53 51.53883 -1.11962 15025 ft 318 kts 148°
2026-05-07 18:54 51.52020 -1.10037 15030 ft 318 kts 148°
2026-05-07 18:54 51.50151 -1.08113 15034 ft 318 kts 148°
2026-05-07 18:54 51.48308 -1.06217 15037 ft 318 kts 148°
2026-05-07 18:54 51.46442 -1.04297 15033 ft 318 kts 148°
2026-05-07 18:55 51.44580 -1.02384 15041 ft 318 kts 148°
2026-05-07 18:55 51.42711 -1.00460 15048 ft 318 kts 148°
2026-05-07 18:55 51.40850 -0.98544 15037 ft 318 kts 148°
2026-05-07 18:55 51.38986 -0.96632 15043 ft 318 kts 148°
2026-05-07 18:56 51.37122 -0.94722 15058 ft 318 kts 148°
2026-05-07 18:56 51.35256 -0.92813 15064 ft 318 kts 148°
2026-05-07 18:56 51.33390 -0.90906 15055 ft 318 kts 148°
2026-05-07 18:56 51.31543 -0.89023 15055 ft 318 kts 148°
2026-05-07 18:57 51.29678 -0.87120 15053 ft 318 kts 148°
2026-05-07 18:57 51.27806 -0.85213 15051 ft 318 kts 148°
2026-05-07 18:57 51.25936 -0.83311 15050 ft 318 kts 148°
2026-05-07 18:57 51.24070 -0.81410 15055 ft 318 kts 148°
2026-05-07 18:58 51.22222 -0.79531 15067 ft 318 kts 148°
2026-05-07 18:58 51.20351 -0.77627 15061 ft 318 kts 148°
2026-05-07 18:58 51.18482 -0.75726 15054 ft 318 kts 148°
2026-05-07 18:58 51.16636 -0.73854 15053 ft 318 kts 148°
2026-05-07 18:59 51.14769 -0.71962 15053 ft 318 kts 148°
2026-05-07 18:59 51.12898 -0.70073 15050 ft 318 kts 149°
2026-05-07 18:59 51.11023 -0.68183 15049 ft 318 kts 148°
2026-05-07 18:59 51.09151 -0.66300 14943 ft 316 kts 149°
2026-05-07 19:00 51.07343 -0.64476 14750 ft 308 kts 148°
2026-05-07 19:00 51.05705 -0.62311 14463 ft 306 kts 133°
2026-05-07 19:00 51.04473 -0.59562 14132 ft 306 kts 118°
2026-05-07 19:00 51.03530 -0.56525 13789 ft 305 kts 117°
2026-05-07 19:01 51.02592 -0.53513 13473 ft 303 kts 117°
2026-05-07 19:01 51.01652 -0.50517 13130 ft 301 kts 117°
2026-05-07 19:01 51.00718 -0.47548 12786 ft 300 kts 117°
2026-05-07 19:01 50.99799 -0.44632 12445 ft 299 kts 118°
2026-05-07 19:02 50.98857 -0.41651 12048 ft 300 kts 118°
2026-05-07 19:02 50.97927 -0.38708 11835 ft 297 kts 118°
2026-05-07 19:02 50.97002 -0.35779 11609 ft 296 kts 117°
2026-05-07 19:02 50.96084 -0.32865 11382 ft 295 kts 117°
2026-05-07 19:03 50.95163 -0.29952 11133 ft 294 kts 117°
2026-05-07 19:03 50.94259 -0.27099 10889 ft 293 kts 117°
2026-05-07 19:03 50.93342 -0.24213 10638 ft 292 kts 117°
2026-05-07 19:03 50.92426 -0.21335 10387 ft 291 kts 117°
2026-05-07 19:04 50.91518 -0.18480 10143 ft 287 kts 117°
2026-05-07 19:04 50.90655 -0.15674 9904 ft 281 kts 111°
2026-05-07 19:04 50.90376 -0.12658 9656 ft 275 kts 83°
2026-05-07 19:04 50.91002 -0.09851 9408 ft 270 kts 55°
2026-05-07 19:05 50.92347 -0.07909 9154 ft 263 kts 26°
2026-05-07 19:05 50.94090 -0.07251 8905 ft 256 kts 356°
2026-05-07 19:05 50.95763 -0.08036 8652 ft 249 kts 326°
2026-05-07 19:05 50.96910 -0.09977 8405 ft 245 kts 298°
2026-05-07 19:06 50.97633 -0.12431 8154 ft 245 kts 292°
2026-05-07 19:06 50.98917 -0.17453 7651 ft 244 kts 291°
2026-05-07 19:06 50.99528 -0.19961 7398 ft 243 kts 286°
2026-05-07 19:07 50.99761 -0.22570 7153 ft 242 kts 272°
2026-05-07 19:07 50.99829 -0.25236 6969 ft 241 kts 271°
2026-05-07 19:07 50.99878 -0.27904 6792 ft 241 kts 271°
2026-05-07 19:07 50.99922 -0.30569 6615 ft 241 kts 271°
2026-05-07 19:08 50.99966 -0.33219 6398 ft 239 kts 271°
2026-05-07 19:08 51.00010 -0.35863 6171 ft 239 kts 271°
2026-05-07 19:08 51.00053 -0.38499 5921 ft 238 kts 271°
2026-05-07 19:08 51.00097 -0.41121 5690 ft 237 kts 271°
2026-05-07 19:09 51.00141 -0.43709 5496 ft 237 kts 271°
2026-05-07 19:09 51.00245 -0.46331 5287 ft 237 kts 283°
2026-05-07 19:09 51.01003 -0.48619 5014 ft 236 kts 315°
2026-05-07 19:09 51.02380 -0.49978 4744 ft 235 kts 338°
2026-05-07 19:10 51.03916 -0.50892 4472 ft 236 kts 341°
2026-05-07 19:10 51.05470 -0.51755 4198 ft 236 kts 341°
2026-05-07 19:10 51.07019 -0.52610 3918 ft 234 kts 342°
2026-05-07 19:10 51.08599 -0.52900 3628 ft 231 kts 13°
2026-05-07 19:11 51.09960 -0.51664 3358 ft 227 kts 51°
2026-05-07 19:11 51.10596 -0.49406 3100 ft 222 kts 78°
2026-05-07 19:11 51.10913 -0.47080 2997 ft 213 kts 79°
2026-05-07 19:11 51.11216 -0.44848 3000 ft 200 kts 78°
2026-05-07 19:12 51.11509 -0.42758 2923 ft 187 kts 78°
2026-05-07 19:12 51.11786 -0.40771 2706 ft 181 kts 78°
2026-05-07 19:12 51.12053 -0.38870 2490 ft 175 kts 78°
2026-05-07 19:12 51.12311 -0.37030 2262 ft 167 kts 78°
2026-05-07 19:13 51.12560 -0.35244 2042 ft 164 kts 78°
2026-05-07 19:13 51.12805 -0.33487 1849 ft 162 kts 78°
2026-05-07 19:13 51.13049 -0.31741 1620 ft 161 kts 78°
2026-05-07 19:13 51.13289 -0.30017 1413 ft 165 kts 78°
2026-05-07 19:14 51.13532 -0.28279 1181 ft 151 kts 78°
2026-05-07 19:14 51.13750 -0.26709 993 ft 140 kts 78°
2026-05-07 19:14 51.13956 -0.25236 800 ft 136 kts 77°
2026-05-07 19:14 51.14164 -0.23775 618 ft 134 kts 78°
2026-05-07 19:15 51.14361 -0.22323 431 ft 134 kts 79°
2026-05-07 19:15 51.14562 -0.20868 351 ft 140 kts 78°
2026-05-07 19:15 51.14780 -0.19335 1124 ft 141 kts 78°
2026-05-07 19:15 51.15001 -0.17762 1714 ft 154 kts 80°
2026-05-07 19:16 51.14801 -0.16028 1904 ft 171 kts 121°
2026-05-07 19:16 51.13913 -0.14619 2125 ft 196 kts 153°
2026-05-07 19:16 51.12527 -0.14184 2662 ft 210 kts 178°
2026-05-07 19:16 51.11033 -0.14197 2948 ft 214 kts 181°
2026-05-07 19:17 51.09519 -0.14277 3002 ft 224 kts 181°
2026-05-07 19:17 51.07946 -0.14368 3005 ft 227 kts 181°
2026-05-07 19:17 51.06389 -0.14746 3004 ft 228 kts 203°
2026-05-07 19:17 51.05167 -0.16320 3010 ft 230 kts 236°
2026-05-07 19:18 51.04614 -0.18697 3016 ft 232 kts 258°
2026-05-07 19:18 51.04341 -0.21235 3008 ft 233 kts 261°
2026-05-07 19:18 51.04105 -0.23784 3006 ft 233 kts 261°
2026-05-07 19:18 51.03876 -0.26331 3005 ft 233 kts 261°
2026-05-07 19:19 51.03648 -0.28877 3007 ft 233 kts 261°
2026-05-07 19:19 51.03423 -0.31397 3007 ft 233 kts 261°
2026-05-07 19:19 51.03196 -0.33953 3005 ft 233 kts 261°
2026-05-07 19:19 51.02968 -0.36504 3005 ft 233 kts 261°
2026-05-07 19:20 51.02740 -0.39060 3008 ft 233 kts 261°
2026-05-07 19:20 51.02513 -0.41606 3006 ft 233 kts 261°
2026-05-07 19:20 51.02286 -0.44145 3005 ft 233 kts 261°
2026-05-07 19:20 51.02096 -0.46697 3003 ft 233 kts 270°
2026-05-07 19:21 51.02520 -0.49071 3005 ft 222 kts 304°
2026-05-07 19:21 51.03637 -0.50599 3004 ft 206 kts 334°
2026-05-07 19:21 51.04930 -0.51463 3003 ft 197 kts 340°
2026-05-07 19:21 51.06207 -0.52206 3005 ft 194 kts 341°
2026-05-07 19:22 51.07486 -0.52840 3002 ft 192 kts 355°
2026-05-07 19:22 51.08769 -0.52524 3008 ft 190 kts 24°
2026-05-07 19:22 51.09854 -0.51364 3011 ft 188 kts 49°
2026-05-07 19:22 51.10526 -0.49614 3006 ft 186 kts 74°
2026-05-07 19:23 51.10826 -0.47610 3013 ft 186 kts 78°
2026-05-07 19:23 51.11100 -0.45663 3023 ft 174 kts 78°
2026-05-07 19:23 51.11359 -0.43817 2983 ft 169 kts 78°
2026-05-07 19:23 51.11613 -0.42003 2835 ft 166 kts 78°
2026-05-07 19:24 51.11863 -0.40222 2658 ft 163 kts 78°
2026-05-07 19:24 51.12111 -0.38454 2438 ft 163 kts 78°
2026-05-07 19:24 51.12358 -0.36690 2219 ft 163 kts 78°
2026-05-07 19:24 51.12602 -0.34943 2034 ft 161 kts 78°
2026-05-07 19:25 51.12846 -0.33198 1800 ft 161 kts 78°
2026-05-07 19:25 51.13086 -0.31476 1583 ft 161 kts 78°
2026-05-07 19:25 51.13328 -0.29740 1368 ft 159 kts 78°
2026-05-07 19:25 51.13555 -0.28111 1154 ft 144 kts 78°
2026-05-07 19:26 51.13767 -0.26601 957 ft 137 kts 78°
2026-05-07 19:26 51.13969 -0.25150 787 ft 134 kts 78°
2026-05-07 19:26 51.14171 -0.23700 608 ft 133 kts 78°
2026-05-07 19:26 51.14370 -0.22258 455 ft 133 kts 78°
2026-05-07 19:27 51.14502 -0.21303 325 ft 133 kts 78°
2026-05-07 19:27 51.14697 -0.19895 214 ft 120 kts 78°
2026-05-07 19:27 51.14872 -0.18622 206 ft 57 kts 78°
2026-05-07 19:27 51.14916 -0.18298 215 ft 37 kts 78°
2026-05-07 19:28 51.14981 -0.17974 213 ft 28 kts 61°
2026-05-07 19:28 51.15072 -0.17778 216 ft 17 kts 38°
2026-05-07 19:28 51.15151 -0.17768 214 ft 8 kts 353°
2026-05-07 19:28 51.15164 -0.17771 205 ft 0 kts 353°
2026-05-07 19:30 51.15194 -0.17776 212 ft 8 kts 353°
2026-05-07 19:31 51.15240 -0.17812 215 ft 7 kts 308°
2026-05-07 19:31 51.15241 -0.17883 205 ft 6 kts 258°
2026-05-07 19:31 51.15233 -0.17949 210 ft 8 kts 258°
2026-05-07 19:31 51.15229 -0.18069 213 ft 11 kts 296°
2026-05-07 19:32 51.15293 -0.18115 205 ft 10 kts 347°
2026-05-07 19:32 51.15356 -0.18138 205 ft 9 kts 347°
2026-05-07 19:32 51.15413 -0.18157 206 ft 8 kts 348°
2026-05-07 19:32 51.15462 -0.18179 205 ft 7 kts 338°
2026-05-07 19:33 51.15520 -0.18203 205 ft 13 kts 349°
2026-05-07 19:33 51.15612 -0.18235 205 ft 13 kts 348°
2026-05-07 19:33 51.15673 -0.18159 205 ft 12 kts 76°
2026-05-07 19:33 51.15691 -0.18026 205 ft 12 kts 77°
2026-05-07 19:34 51.15708 -0.17902 205 ft 7 kts 78°
2026-05-07 19:34 51.15732 -0.17876 205 ft 4 kts 10°
2026-05-07 19:34 51.15768 -0.17885 205 ft 5 kts 347°
2026-05-07 19:34 51.15782 -0.17890 205 ft 0 kts 347°